{"data":{"norad_id":54199,"intl_designator":"2022-141AU","name":"STARLINK-5244","alt_names":[],"object_type":"PAYLOAD","status":"ACTIVE","operator":null,"country":"US","launch_date":"2022-10-28","launch_site_code":"AFWTR","launch_vehicle":null,"mission":null,"orbit_class":"UNKNOWN","rcs_meters":null,"size_class":null,"mass_kg":null,"dimensions":null,"purposes":["comms"],"wikipedia_slug":null,"has_3d_model":false,"image_url":null,"decayed_at":null,"tle_current":{"epoch":"2026-09-20T07:04:11.820000Z","epoch_age_seconds":107028,"freshness":"FRESH","line1":"1 54199U 22141AU  26263.29458125 -.00002013  00000+0 -46803-4 0  9995","line2":"2 54199  53.1603 188.8287 0001087  84.6157 275.4970 15.35415017215539","mean_motion":15.35415017,"eccentricity":0.0001087,"inclination_deg":53.1603,"raan_deg":188.8287,"arg_perigee_deg":84.6157,"mean_anomaly_deg":275.497,"bstar":-4.6803e-5,"rev_number":21553,"period_min":93.785718131999,"perigee_km":458.94478627106,"apogee_km":460.43132943864,"semimajor_km":6837.8250578548,"source":"CELESTRAK","updated_at":"2026-09-21T09:00:33.116506Z"}}}